Probability
0 0 0 0 0 0 0 0 0 0 0 0 0 0 0 0 0 0 0 0 1 3 12 25 38 46 51 56 61 64 68 73 75 71 65 63 66 66 61 53 42 34 27 24 22 19 14 7 4
0 0 0 0 0 0 0 0 0 0 0 0 0 0 0 0 0 0 0 0 2 6 14 26 37 46 50 56 61 65 68 73 74 70 65 63 65 66 62 55 46 37 30 25 22 18 12 6 4
0 0 1 1 1 0 0 0 0 0 0 0 0 0 0 0 0 0 1 1 4 9 16 25 37 45 51 56 61 65 69 72 71 66 61 60 61 61 59 55 49 41 34 27 23 17 10 5 4
0 0 1 1 1 0 0 0 0 0 0 0 0 0 0 0 0 1 2 4 6 11 17 24 33 43 51 57 61 66 69 70 68 62 56 55 57 57 56 54 49 42 35 28 22 16 9 5 4
0 0 0 0 0 0 0 0 0 0 0 0 0 0 0 0 0 2 5 6 8 12 17 22 29 38 46 53 59 65 68 69 66 59 53 53 55 55 54 53 48 41 34 27 21 15 9 6 4
0 0 0 0 0 0 0 0 0 0 0 0 0 0 0 0 1 3 6 8 9 11 16 21 26 31 38 46 54 61 65 66 63 57 52 52 54 53 52 50 45 39 33 27 20 14 9 6 3
0 0 0 0 0 0 0 0 0 0 0 0 0 0 0 0 2 5 7 9 11 12 15 20 24 30 36 42 48 55 59 62 61 56 52 51 50 49 48 46 41 37 33 27 20 13 9 6 3
0 0 0 0 0 0 0 0 0 0 0 0 0 0 0 2 4 7 9 11 14 15 16 18 25 31 37 40 44 48 53 56 54 51 48 45 43 42 40 37 36 35 33 26 19 13 10 7 4
0 0 0 0 0 0 0 0 0 0 0 0 0 0 1 3 6 8 10 13 16 17 16 18 24 30 34 37 40 42 44 44 43 40 38 36 33 32 29 26 28 32 30 23 17 14 12 8 4
0 0 0 0 0 0 0 0 0 0 0 0 0 0 2 5 6 7 10 13 15 15 16 17 20 24 29 34 36 36 35 34 33 32 29 28 26 23 19 18 22 26 25 20 16 14 11 7 3
0 0 0 0 0 0 0 0 0 0 0 0 0 1 3 5 6 5 6 10 12 13 13 15 16 18 24 29 32 32 30 28 29 28 25 22 20 17 16 17 19 20 18 16 14 12 9 5 1
0 0 0 0 0 0 0 0 0 0 0 0 0 1 3 5 5 4 4 6 10 10 10 11 12 14 18 23 27 28 27 27 26 25 21 18 15 13 15 17 17 15 14 13 13 11 7 3 1
0 0 0 0 0 0 0 0 0 0 0 0 0 1 3 4 5 4 3 5 7 8 8 8 10 11 13 17 21 23 25 25 24 22 19 15 11 10 12 15 15 13 11 11 11 9 5 2 1
0 0 0 0 0 0 0 0 0 0 0 0 0 1 2 3 4 3 3 4 4 6 6 7 8 9 11 13 16 20 21 22 21 19 16 12 8 6 8 12 13 11 10 10 10 8 4 1 0
0 0 0 0 0 0 0 0 0 0 0 0 0 1 3 3 3 3 3 3 2 3 5 6 8 9 9 9 13 17 19 18 17 15 13 9 5 4 5 8 9 9 8 9 10 7 4 1 0
0 0 0 0 0 0 0 0 0 0 0 0 0 2 3 3 3 3 3 2 1 1 3 6 7 8 8 7 10 14 16 15 12 10 9 8 6 4 4 4 6 7 7 7 7 6 3 1 0
0 0 0 0 0 0 0 0 0 0 0 0 0 1 2 3 3 3 3 2 1 0 2 4 7 7 6 6 7 10 13 13 9 5 5 5 5 5 4 3 4 5 6 6 6 4 1 0 0
0 0 0 0 0 0 0 0 0 0 0 0 0 0 1 2 3 3 3 2 1 0 0 2 5 6 5 4 5 7 9 11 8 4 1 2 3 4 3 3 3 4 5 6 6 4 1 0 0
0 0 0 0 0 0 0 0 0 0 0 0 0 0 0 1 1 2 2 1 0 0 0 1 3 5 4 3 4 5 6 9 8 4 1 0 1 1 1 1 2 3 4 6 6 4 1 0 0
0 0 0 0 0 0 0 0 0 0 0 0 0 0 0 0 0 1 2 1 0 0 0 0 2 4 4 3 3 4 5 7 7 5 2 0 0 0 0 0 1 1 3 5 6 5 2 0 0
0 0 0 0 0 0 0 0 0 0 0 0 0 0 0 0 0 0 1 2 1 0 0 0 1 3 4 3 4 4 5 6 5 4 2 0 0 0 0 0 0 0 1 3 5 5 2 0 0
0 0 0 0 0 0 0 0 0 0 0 0 0 0 0 0 0 0 1 2 1 0 0 0 0 2 3 3 3 4 4 4 3 2 0 0 0 0 0 0 0 0 1 2 4 5 3 1 0
0 0 0 0 0 0 0 0 0 0 0 0 0 0 0 0 0 0 1 1 0 0 0 0 0 1 2 3 3 3 3 3 3 1 0 0 0 0 0 0 0 0 1 2 2 3 2 1 0
0 0 0 0 0 0 0 0 0 0 0 0 0 0 0 0 0 0 0 1 0 0 0 0 0 1 2 3 3 3 3 4 4 1 0 0 0 0 0 0 0 0 1 1 0 1 1 0 0
0 0 0 0 0 0 0 0 0 0 0 0 0 0 0 0 0 0 0 0 0 0 0 0 0 1 2 3 3 4 4 5 4 2 0 0 0 0 0 0 0 0 0 0 0 0 0 0 0
0 0 0 0 0 0 0 0 0 0 0 0 0 0 0 0 0 0 0 0 0 0 0 0 0 0 1 2 2 4 5 5 4 2 0 0 0 0 0 0 0 0 0 0 0 0 0 0 0
0 0 0 0 0 0 0 0 0 0 0 0 0 0 0 0 0 0 0 0 0 0 0 0 0 0 1 1 2 3 4 4 3 1 0 0 0 0 0 0 0 0 1 1 1 0 0 0 0
0 0 0 0 0 0 0 0 0 0 0 0 0 0 0 0 0 0 0 0 0 0 0 0 0 0 0 1 1 2 2 2 2 1 0 0 0 0 0 0 0 0 1 2 2 1 0 0 0
0 0 0 0 0 0 0 0 0 0 0 0 0 0 0 0 0 0 0 0 0 0 0 0 0 0 0 1 1 0 0 1 1 1 0 0 0 0 0 0 0 0 0 1 1 1 0 0 0
0 0 0 0 0 0 0 0 0 0 0 0 0 0 0 0 0 0 0 0 0 0 0 0 0 0 0 1 0 0 0 0 1 0 0 0 0 0 0 0 0 0 0 0 1 0 0 0 0
Wind_Speed
9 5 1 3 4 1 5 6 4 3 4 3 2 2 3 4 3 3 1 2 3 5 7 10 13 14 15 15 15 15 16 16 17 17 18 18 18 19 19 19 19 18 18 18 17 17 17 17 17
4 3 3 4 4 4 7 6 6 6 5 4 4 2 1 1 0 3 2 1 4 5 5 6 10 12 13 14 15 15 16 16 17 17 18 18 18 19 19 19 18 18 17 17 17 17 17 17 16
4 1 3 3 5 8 6 3 4 4 5 4 5 3 1 1 1 1 1 2 4 4 4 4 8 11 12 13 14 15 16 16 17 17 18 18 19 19 19 19 18 18 18 17 17 17 17 16 16
3 4 3 2 9 8 5 3 3 5 5 5 4 5 5 3 1 1 3 3 4 3 2 4 6 9 11 12 13 14 15 16 16 17 17 18 19 19 19 18 18 18 18 18 17 17 17 16 16
4 3 1 5 8 6 3 5 5 5 5 5 4 5 8 2 2 5 5 4 2 1 2 3 5 6 9 11 12 13 14 15 16 16 17 18 19 18 18 18 18 18 19 18 18 17 17 16 16
3 3 2 7 7 4 2 4 3 4 5 6 5 6 7 2 6 6 5 3 1 1 3 4 5 6 7 9 11 12 12 14 15 16 17 18 18 19 19 19 19 19 19 18 18 17 17 16 16
3 2 5 5 5 4 2 3 1 4 6 6 4 6 7 6 8 7 5 4 2 0 1 3 5 5 6 7 8 10 11 12 13 15 16 16 17 19 20 20 20 19 19 19 18 17 17 16 16
3 2 3 5 5 4 3 4 2 4 7 5 2 3 7 10 13 10 7 5 3 2 1 2 3 4 4 5 7 8 10 11 12 13 13 14 16 17 18 18 19 20 19 19 18 17 17 16 15
3 1 4 5 4 5 5 7 7 6 5 5 3 5 7 10 11 10 8 7 5 4 3 2 3 3 3 4 5 6 8 10 10 10 11 11 8 10 12 14 18 20 20 19 19 18 17 14 13
3 3 7 3 2 5 7 7 9 8 10 9 9 9 8 7 8 9 8 7 7 6 5 3 3 3 3 4 3 4 5 6 6 6 7 6 6 7 9 14 17 19 19 19 19 18 15 10 5
1 5 5 5 5 6 8 8 6 7 11 10 12 14 12 11 9 9 9 8 7 7 6 4 3 3 3 3 3 2 2 3 5 7 7 6 5 5 6 6 9 11 13 10 12 10 6 5 4
2 5 5 6 6 7 8 8 8 10 14 12 12 12 11 12 12 10 11 9 7 7 7 5 4 4 4 4 3 3 3 3 4 6 8 6 5 5 6 6 7 7 6 7 7 6 6 6 6
3 5 6 8 11 11 11 11 11 13 14 12 12 11 11 12 12 11 10 10 8 8 8 6 5 4 5 4 4 4 4 4 5 6 7 8 6 7 7 6 7 7 7 8 8 7 8 7 7
4 7 10 11 11 8 10 13 8 13 10 10 11 11 11 11 11 11 9 10 9 8 8 6 6 5 5 5 5 5 5 5 5 6 8 9 7 7 8 8 8 8 8 8 8 9 8 7 6
4 7 10 7 5 5 6 11 9 12 8 10 11 12 11 11 9 10 9 9 9 9 8 6 6 5 5 6 6 5 5 5 6 6 9 10 9 9 8 8 8 9 9 9 7 8 7 7 6
3 3 6 7 4 4 4 13 10 7 8 12 11 10 10 10 9 9 9 8 8 8 7 7 6 5 5 6 6 5 6 6 6 6 8 10 10 10 9 8 8 10 9 8 8 8 7 7 7
3 4 7 9 4 4 4 14 13 10 10 12 10 9 8 9 9 9 8 7 7 6 6 7 6 6 6 6 6 6 6 6 6 6 7 9 11 11 9 9 8 10 9 9 9 8 7 8 7
5 6 7 9 7 7 10 16 18 12 8 9 9 8 7 8 9 8 7 6 5 5 5 5 5 5 5 5 5 5 6 6 6 6 8 10 10 11 9 9 10 10 10 9 9 9 8 8 8
6 7 12 12 10 8 12 18 17 12 7 7 7 7 7 9 8 7 6 5 4 4 5 5 5 5 4 3 4 5 6 6 6 7 10 11 11 11 10 9 11 10 10 12 12 9 10 8 7
5 9 10 11 7 9 12 16 12 8 5 4 5 7 8 9 9 7 6 5 5 5 6 6 5 5 6 5 5 5 6 6 7 7 9 11 12 12 10 11 11 11 10 13 13 11 8 6 8
7 7 9 11 12 5 7 10 5 4 3 4 4 5 6 7 8 8 7 6 5 5 6 6 6 6 7 6 4 4 4 4 5 7 8 10 12 12 12 12 11 12 12 12 14 13 10 10 8
8 7 9 11 8 6 3 8 7 5 5 6 6 6 7 7 7 7 7 7 6 7 7 6 6 6 6 5 5 7 6 7 7 6 6 9 11 12 12 12 13 13 11 12 14 12 10 12 11
7 9 10 8 4 4 3 4 9 4 5 6 6 6 6 6 7 7 8 7 7 7 7 6 6 5 5 5 6 8 7 6 5 5 7 8 9 11 12 12 13 13 12 13 14 12 13 10 11
5 7 6 3 3 3 3 2 9 3 4 6 6 7 7 7 7 8 8 8 8 7 6 6 6 6 5 6 6 8 8 6 6 7 7 8 7 8 12 13 13 13 12 14 14 13 14 11 10
5 6 7 9 6 6 4 4 9 5 4 4 6 8 8 8 8 9 10 10 9 9 8 8 7 7 6 5 6 7 7 7 8 8 8 8 7 8 12 12 12 11 11 12 12 12 13 14 14
2 4 3 3 6 8 6 6 7 5 5 5 5 6 8 9 9 9 9 10 10 10 9 8 7 7 6 5 5 6 6 5 6 7 6 8 8 8 11 12 12 12 13 13 12 11 11 11 12
1 1 3 3 4 6 7 8 8 4 5 6 7 8 9 9 10 10 9 9 9 9 8 8 8 6 5 5 4 5 6 6 6 7 6 6 7 7 11 12 13 12 13 14 14 11 12 11 11
3 3 3 2 3 7 8 7 6 5 6 8 9 9 9 10 10 10 10 9 9 8 8 8 7 6 6 4 4 4 5 6 6 6 7 6 8 9 11 12 13 13 13 13 13 11 12 12 10
0 1 2 2 3 3 8 10 6 5 6 7 9 9 11 11 11 10 10 10 9 8 8 8 8 6 6 5 4 5 4 4 5 6 8 7 8 10 12 13 13 13 14 14 13 12 13 14 12
4 4 5 3 5 4 6 13 5 5 5 7 10 11 12 12 11 10 10 10 9 9 8 8 7 6 6 5 5 5 4 4 5 6 7 7 9 10 11 12 13 13 14 14 15 14 14 15 14
Wind_Direction
334 330 35 63 67 78 237 237 229 259 264 245 245 170 179 194 181 190 271 40 75 134 165 174 174 174 172 168 165 163 162 160 159 156 154 153 151 149 147 145 143 142 140 136 134 132 129 127 125
331 342 57 74 123 207 246 229 227 241 261 318 324 314 291 245 179 100 25 12 110 130 152 172 179 177 174 171 168 166 165 165 164 161 159 158 156 154 151 149 146 145 142 139 137 134 132 130 129
330 55 88 110 184 204 223 217 224 271 298 331 327 316 315 324 45 108 297 140 117 131 149 166 179 182 179 175 172 171 169 169 168 167 164 163 161 158 156 152 150 146 143 141 139 137 135 134 132
38 48 58 175 228 228 234 288 315 322 341 357 351 324 323 355 40 11 21 69 105 126 149 177 173 185 183 180 178 176 174 173 172 172 170 169 166 163 159 155 151 147 145 143 141 140 139 138 136
60 81 130 238 242 245 273 317 332 334 329 327 347 316 301 321 50 46 36 54 72 143 160 180 187 185 190 185 182 183 181 178 176 176 176 174 171 166 161 157 153 150 149 147 146 145 143 141 138
57 81 177 235 245 259 294 321 335 334 319 319 341 312 284 326 25 14 7 5 58 170 186 183 190 197 195 192 188 186 188 186 183 181 179 178 174 169 164 160 157 154 152 151 150 149 147 145 142
97 123 216 241 264 274 301 330 339 317 313 302 318 303 291 326 342 346 351 351 341 332 203 200 195 193 201 199 196 193 193 191 189 186 181 179 177 172 169 165 160 157 155 154 153 152 152 149 145
120 111 242 254 260 262 329 336 307 296 279 286 325 301 297 313 323 330 340 347 339 322 309 254 218 202 197 195 203 201 200 198 194 190 184 181 179 175 171 168 163 160 157 157 156 156 155 152 148
84 94 239 248 272 285 329 330 315 299 271 281 270 254 269 302 321 327 330 331 329 319 304 286 248 225 210 208 207 201 201 199 194 189 182 180 180 175 172 171 165 163 160 160 159 158 156 151 147
98 205 239 253 282 292 306 309 309 313 301 291 292 289 287 302 315 313 305 300 301 299 291 277 269 240 229 228 210 205 207 193 194 189 180 181 179 174 172 169 167 165 162 162 161 159 154 145 138
179 225 262 283 294 298 299 298 292 286 282 280 287 296 301 302 301 296 285 268 265 271 274 264 262 252 235 225 220 212 203 200 193 187 181 176 176 170 170 168 166 165 162 162 161 155 149 145 144
297 270 273 281 303 302 290 288 283 258 262 272 276 276 278 285 285 283 281 276 268 269 270 257 247 253 244 226 219 215 202 204 199 188 181 174 173 173 172 173 168 166 164 161 156 155 155 153 151
272 281 287 286 291 283 280 271 276 270 271 279 283 279 271 270 275 278 277 273 265 257 258 255 242 245 246 233 221 217 205 205 205 191 184 179 176 178 175 177 173 169 164 164 161 160 161 158 155
276 285 290 286 285 278 273 276 272 269 280 290 288 283 275 272 275 279 280 278 269 260 256 252 246 239 246 243 227 215 207 205 202 197 189 184 178 179 177 179 177 172 171 169 167 165 164 161 157
295 303 304 284 280 277 299 287 252 263 287 288 284 283 281 275 273 274 274 272 271 265 253 249 251 235 238 249 231 222 208 203 204 199 191 187 179 179 178 179 181 174 170 168 166 164 158 156 155
346 340 308 293 288 283 311 283 275 273 290 289 287 288 286 280 272 273 276 276 277 273 258 250 258 247 240 249 244 226 216 208 206 203 193 188 181 178 178 177 185 175 168 164 166 165 160 157 157
16 321 286 295 277 286 275 276 286 294 286 287 288 290 286 288 289 283 279 275 276 278 267 254 246 237 238 244 248 233 221 214 207 203 196 189 184 180 182 179 179 176 169 167 169 167 161 160 159
295 288 281 285 286 289 281 276 288 292 281 278 285 288 291 296 291 289 289 286 283 282 277 262 252 237 234 242 248 239 225 217 206 202 200 190 185 183 183 181 176 177 172 170 168 165 162 159 157
261 268 278 277 282 290 276 282 289 289 286 292 299 302 305 300 295 298 295 292 295 293 288 275 257 245 232 232 239 228 225 219 211 207 201 192 185 182 184 184 178 178 179 174 167 161 160 157 149
275 283 281 289 296 300 284 286 284 279 274 284 293 301 305 313 317 318 316 304 296 296 293 284 263 252 240 230 236 226 227 221 212 206 201 194 187 184 185 186 183 178 177 176 171 161 157 163 159
286 261 273 291 311 302 304 297 281 292 296 310 303 298 309 313 312 314 311 308 300 291 288 285 274 262 249 236 235 240 238 222 215 208 199 194 190 188 186 189 183 181 179 180 176 171 161 165 169
286 262 279 296 317 300 341 301 291 296 312 320 318 309 307 310 310 310 312 313 299 284 281 277 270 267 256 238 231 221 228 232 221 207 204 196 191 190 187 190 185 181 180 179 180 176 167 166 170
266 290 290 291 273 287 282 254 288 320 315 312 312 307 306 309 306 307 307 305 302 293 283 275 277 274 266 243 232 223 226 233 223 208 205 200 195 193 190 190 186 182 180 179 181 177 171 173 174
304 327 323 14 56 305 270 251 288 292 285 304 315 320 319 318 319 319 320 320 317 308 308 297 293 284 264 244 230 223 218 218 220 213 206 201 195 194 193 191 187 184 180 180 180 178 175 176 174
24 30 3 357 359 271 295 275 260 267 277 289 304 314 321 323 325 328 330 331 329 326 325 320 302 287 273 256 232 223 220 210 215 209 205 200 198 200 195 192 186 184 182 180 178 178 178 179 178
335 107 121 282 281 295 304 261 261 273 292 303 309 320 328 326 324 325 324 324 324 324 322 319 304 289 282 272 254 227 219 215 217 210 207 205 204 203 194 191 186 185 184 181 178 178 179 179 181
2 203 182 180 283 283 278 284 297 288 313 321 328 332 328 325 324 323 319 318 317 318 315 315 308 295 289 282 278 251 228 222 220 213 211 214 205 197 194 189 187 185 185 182 178 181 180 178 183
174 162 83 91 302 291 290 277 264 290 299 315 325 325 324 325 323 322 321 320 315 315 315 322 315 307 295 294 287 281 254 229 219 210 211 220 207 194 190 190 189 185 183 181 181 179 178 178 183
120 122 139 184 202 243 288 277 239 252 278 303 311 313 315 317 317 318 317 318 316 320 324 325 319 316 307 300 297 293 280 258 230 216 213 217 209 198 192 191 188 184 182 182 183 183 178 180 183
201 195 163 194 258 229 262 275 266 264 291 306 310 313 313 313 312 312 313 316 321 322 322 322 317 312 308 304 299 297 284 274 253 234 222 216 210 202 196 190 187 186 184 183 184 185 182 183 185